This is the latest recevied weather packets stored in our database for station/object DK4EP-10. If no packets are shown the sender has not sent any weather packets the latest 10 day(s).
| Time | Temp. | Humidity | Pressure | Rain* | Wind** | Luminosity | Snow |
|---|---|---|---|---|---|---|---|
| 1777668640 | 7.78° C | 92% | 1003 hPa | - | - | - | - |
| 1777667739 | 7.78° C | 91% | 1002 hPa | - | - | - | - |
| 1777666838 | 8.33° C | 89% | 1003 hPa | - | - | - | - |
| 1777665937 | 8.33° C | 89% | 1003 hPa | - | - | - | - |
| 1777665035 | 8.89° C | 88% | 1003 hPa | - | - | - | - |
| 1777664134 | 9.44° C | 84% | 1003 hPa | - | - | - | - |
| 1777663233 | 10° C | 82% | 1003 hPa | - | - | - | - |
| 1777662332 | 10.56° C | 80% | 1003 hPa | - | - | - | - |
| 1777661431 | 11.67° C | 77% | 1003 hPa | - | - | - | - |
| 1777660530 | 12.22° C | 75% | 1002 hPa | - | - | - | - |
| 1777659628 | 13.33° C | 71% | 1002 hPa | - | - | - | - |
| 1777658727 | 15° C | 67% | 1002 hPa | - | - | - | - |
| 1777657826 | 16.67° C | 64% | 1002 hPa | - | - | - | - |
| 1777656925 | 17.78° C | 62% | 1002 hPa | - | - | - | - |
| 1777656024 | 19.44° C | 56% | 1002 hPa | - | - | - | - |
| 1777655122 | 20.56° C | 48% | 1002 hPa | - | - | - | - |
| 1777654221 | 21.11° C | 44% | 1002 hPa | - | - | - | - |
| 1777653319 | 22.78° C | 43% | 1002 hPa | - | - | - | - |
| 1777652418 | 25.56° C | 38% | 1002 hPa | - | - | - | - |
| 1777651517 | 25.56° C | 37% | 1003 hPa | - | - | - | - |
| 1777650616 | 25° C | 35% | 1003 hPa | - | - | - | - |
| 1777649714 | 26.11° C | 38% | 1003 hPa | - | - | - | - |
| 1777648813 | 23.89° C | 39% | 1003 hPa | - | - | - | - |
| 1777647912 | 26.67° C | 37% | 1003 hPa | - | - | - | - |
| 1777647013 | 26.11° C | 37% | 1003 hPa | - | - | - | - |
* Rain since midnight (hover to see other rain measurements)
** Current wind speed in m/s (hover to see current wind gust speed)